Total_Precipitation_Accumulation
1.12 1.17 1.25 1.32 1.26 1.24 1.23 1.16 1.07 1.02 1.08 1.09 1.08 1.12 1.16 1.20 1.24 1.29 1.27 1.23 1.21 1.17 1.14 1.16 1.16 1.17 1.24 1.22 1.17 1.12 1.09 1.18 1.20 0.65 0.46 0.50 0.61 0.67 0.66 0.62 0.56 0.57 0.62
1.08 1.15 1.20 1.28 1.32 1.27 1.28 1.26 1.14 1.06 1.05 1.10 1.12 1.14 1.21 1.25 1.25 1.29 1.30 1.29 1.34 1.31 1.22 1.18 1.17 1.19 1.25 1.28 1.35 1.33 1.22 1.14 1.21 0.97 0.63 0.60 0.70 0.78 0.80 0.78 0.72 0.66 0.63
1.00 1.08 1.17 1.23 1.28 1.29 1.28 1.32 1.29 1.24 1.25 1.23 1.25 1.28 1.30 1.34 1.37 1.40 1.42 1.44 1.49 1.49 1.43 1.39 1.28 1.27 1.32 1.31 1.36 1.38 1.31 1.22 1.18 1.14 0.90 0.76 0.77 0.79 0.89 0.91 0.89 0.86 0.78
0.94 1.08 1.12 1.18 1.20 1.25 1.31 1.31 1.40 1.45 1.50 1.56 1.52 1.49 1.49 1.54 1.64 1.71 1.71 1.72 1.68 1.64 1.61 1.58 1.51 1.44 1.43 1.43 1.46 1.41 1.36 1.37 1.32 1.29 1.14 0.98 0.94 0.88 0.98 1.07 1.13 1.07 0.97
0.86 0.99 1.07 1.14 1.26 1.34 1.39 1.43 1.44 1.53 1.59 1.58 1.61 1.62 1.56 1.71 2.00 2.12 1.97 1.77 1.64 1.57 1.51 1.50 1.54 1.64 1.65 1.69 1.76 1.65 1.56 1.61 1.55 1.49 1.34 1.13 1.01 1.03 1.10 1.11 1.25 1.21 1.15
0.80 0.88 0.97 1.12 1.24 1.39 1.42 1.50 1.54 1.56 1.60 1.59 1.57 1.59 1.55 1.62 2.04 2.15 1.78 1.45 1.37 1.41 1.40 1.32 1.32 1.50 1.58 1.66 1.80 1.80 1.81 1.87 1.87 1.76 1.59 1.37 1.10 1.03 1.13 1.32 1.45 1.57 1.49
0.69 0.80 0.88 1.04 1.15 1.26 1.31 1.34 1.40 1.35 1.32 1.37 1.45 1.40 1.37 1.45 1.81 1.90 1.59 1.17 1.07 1.15 1.19 1.17 1.14 1.21 1.41 1.37 1.50 1.57 1.63 1.76 1.91 1.97 1.94 1.58 1.30 1.18 1.39 1.59 1.61 1.69 1.55
0.63 0.74 0.77 0.91 1.05 1.10 1.17 1.21 1.23 1.18 1.16 1.23 1.25 1.17 1.10 1.17 1.52 1.66 1.46 1.06 1.00 1.05 1.10 1.11 1.09 1.10 1.25 1.45 1.50 1.41 1.33 1.41 1.64 1.80 1.93 1.75 1.55 1.52 1.76 2.02 2.08 2.08 1.86
0.60 0.68 0.71 0.80 0.97 0.99 1.06 1.14 1.12 1.14 1.14 1.11 1.07 1.02 0.96 0.99 1.29 1.58 1.44 1.01 1.03 1.04 1.05 1.11 1.08 1.01 1.30 1.52 1.49 1.41 1.30 1.27 1.39 1.68 1.84 1.88 1.90 1.98 2.16 2.49 2.67 2.73 2.52
0.57 0.64 0.68 0.72 0.85 0.86 0.90 0.97 1.00 1.01 1.05 1.07 1.04 0.98 0.93 0.90 1.12 1.51 1.54 1.10 1.07 1.04 1.03 1.08 1.22 1.20 1.36 1.46 1.36 1.39 1.42 1.25 1.13 1.22 1.33 1.42 1.47 1.58 1.91 2.18 2.49 2.77 2.67
0.51 0.56 0.63 0.70 0.77 0.78 0.81 0.85 0.92 0.95 0.99 1.02 1.03 0.97 0.87 0.87 0.96 1.26 1.62 1.34 1.14 1.05 1.04 1.08 1.12 1.29 1.32 1.39 1.40 1.36 1.49 1.34 1.14 1.20 1.24 1.23 1.27 1.39 1.56 1.81 2.19 2.55 2.74
0.49 0.55 0.60 0.67 0.71 0.74 0.78 0.84 0.86 0.94 1.05 1.06 1.02 1.00 0.92 0.87 0.92 1.10 1.39 1.50 1.34 1.12 1.05 0.93 0.96 1.16 1.20 1.30 1.30 1.36 1.42 1.35 1.25 1.28 1.28 1.25 1.27 1.36 1.49 1.63 1.86 2.12 2.29
0.48 0.53 0.61 0.66 0.66 0.74 0.80 0.86 0.91 0.98 1.07 1.07 1.01 0.98 0.95 0.92 0.98 1.17 1.19 1.26 1.35 1.20 1.11 1.15 1.07 1.13 1.15 1.12 1.16 1.25 1.26 1.20 1.29 1.31 1.22 1.16 1.17 1.27 1.35 1.45 1.56 1.77 1.96
0.49 0.51 0.57 0.67 0.70 0.72 0.78 0.85 0.89 0.93 1.07 1.12 1.07 1.03 0.96 0.93 1.04 1.25 1.19 1.13 1.24 1.24 1.22 1.21 1.17 1.15 1.13 1.09 1.09 1.08 1.04 1.10 1.22 1.22 1.12 1.03 1.03 1.15 1.29 1.40 1.53 1.65 1.87
0.50 0.50 0.55 0.65 0.70 0.70 0.75 0.81 0.86 0.88 1.08 1.25 1.17 1.16 1.14 1.14 1.22 1.43 1.42 1.34 1.36 1.37 1.38 1.35 1.26 1.22 1.19 1.11 1.04 0.99 1.00 1.06 1.12 1.07 1.06 1.05 1.05 1.12 1.21 1.30 1.50 1.62 1.78
0.55 0.55 0.58 0.66 0.68 0.69 0.73 0.79 0.88 0.90 0.96 0.99 1.05 1.15 1.12 1.23 1.29 1.26 1.32 1.36 1.38 1.43 1.45 1.40 1.19 1.09 1.07 1.02 1.00 0.98 0.95 0.93 0.93 0.99 1.04 1.04 1.09 1.14 1.17 1.21 1.39 1.57 1.64
0.59 0.61 0.64 0.67 0.69 0.71 0.69 0.73 0.84 0.85 0.85 0.87 0.91 0.98 1.10 1.19 1.14 1.13 1.19 1.21 1.23 1.23 1.21 1.09 1.01 1.00 0.98 0.96 0.95 0.94 0.93 0.85 0.86 0.95 0.99 1.00 1.05 1.11 1.15 1.19 1.26 1.39 1.47
0.63 0.68 0.70 0.70 0.70 0.71 0.69 0.69 0.76 0.85 0.93 0.94 0.96 1.00 1.07 1.13 1.13 1.12 1.19 1.23 1.23 1.14 1.00 0.96 0.96 0.94 0.94 0.95 0.97 0.95 0.92 0.89 0.92 0.96 0.98 0.99 1.06 1.14 1.17 1.14 1.17 1.28 1.36
0.68 0.72 0.73 0.73 0.73 0.70 0.69 0.72 0.74 0.79 0.88 0.99 1.04 1.08 1.13 1.12 1.10 1.12 1.12 1.08 1.06 1.02 0.96 0.92 0.88 0.88 0.91 0.96 0.98 0.96 0.96 0.96 0.93 0.97 0.98 0.98 1.01 1.09 1.11 1.02 1.05 1.17 1.30
0.72 0.82 0.83 0.80 0.78 0.74 0.73 0.75 0.78 0.82 0.87 0.94 1.03 1.08 1.17 1.20 1.14 1.12 1.02 0.96 1.01 1.00 0.96 0.95 0.89 0.87 0.93 0.98 1.03 1.04 1.02 0.97 0.95 0.97 0.93 0.91 0.93 0.99 1.01 0.97 0.99 1.08 1.14
0.77 0.82 0.86 0.84 0.83 0.82 0.82 0.82 0.84 0.88 0.92 0.92 0.95 1.04 1.29 1.29 1.12 0.97 0.92 0.90 0.94 0.99 0.98 0.97 0.96 0.96 0.98 1.01 1.02 1.02 1.02 0.97 0.94 0.96 0.95 0.91 0.90 0.92 0.91 0.93 0.94 0.96 1.01
0.79 0.81 0.78 0.81 0.85 0.88 0.91 0.90 0.90 0.91 0.91 0.93 0.95 1.00 1.08 1.02 0.95 0.89 0.86 0.86 0.87 0.91 0.96 1.03 1.01 0.95 0.97 1.03 1.06 1.05 1.00 0.93 0.87 0.88 0.90 0.88 0.87 0.86 0.86 0.87 0.87 0.90 0.94
0.81 0.83 0.81 0.81 0.84 0.92 0.91 0.86 0.88 0.90 0.94 0.96 0.96 0.97 0.95 0.94 0.91 0.87 0.87 0.87 0.86 0.84 0.86 0.95 0.98 0.90 0.86 0.90 0.96 1.02 1.03 0.94 0.85 0.85 0.92 0.91 0.86 0.82 0.82 0.83 0.79 0.84 0.88
0.82 0.81 0.83 0.86 0.88 0.89 0.88 0.88 0.88 0.89 0.96 1.02 1.01 0.98 0.96 0.94 0.91 0.84 0.82 0.83 0.83 0.80 0.81 0.87 0.89 0.85 0.82 0.84 0.86 0.87 0.88 0.90 0.92 0.91 0.91 0.92 0.87 0.80 0.81 0.82 0.79 0.78 0.83
0.80 0.81 0.84 0.91 0.94 0.93 0.93 0.92 0.91 0.92 0.97 1.02 1.02 0.99 0.95 0.91 0.87 0.83 0.79 0.79 0.81 0.81 0.79 0.81 0.84 0.84 0.80 0.77 0.79 0.82 0.91 0.98 1.04 1.13 1.21 1.20 1.05 0.90 0.87 0.86 0.81 0.78 0.80
0.77 0.80 0.85 0.93 0.98 0.97 0.97 0.97 0.94 0.94 1.00 1.00 0.99 0.98 0.95 0.93 0.89 0.86 0.84 0.84 0.87 0.85 0.81 0.78 0.77 0.81 0.81 0.78 0.78 0.84 0.92 0.97 1.09 1.29 1.49 1.53 1.26 0.98 0.87 0.88 0.81 0.79 0.81